Total_Precipitation_Accumulation
0.00 0.00 0.00 0.00 0.00 0.00 0.00 0.01 0.06 0.12 0.10 0.08 0.10 0.12 0.10 0.08 0.14 0.31 0.11 0.05 0.04 0.01 0.00 0.01 0.02 0.03 0.03 0.02 0.03 0.04 0.07 0.11 0.13 0.13 0.10 0.09 0.09 0.09 0.09 0.11 0.13 0.19 0.22 0.20 0.18 0.18 0.18 0.18 0.13
0.00 0.00 0.00 0.00 0.00 0.00 0.01 0.02 0.06 0.09 0.12 0.11 0.12 0.08 0.03 0.01 0.01 0.01 0.01 0.03 0.03 0.02 0.00 0.00 0.01 0.03 0.04 0.04 0.04 0.05 0.08 0.12 0.17 0.17 0.16 0.13 0.10 0.09 0.11 0.12 0.13 0.18 0.20 0.18 0.14 0.12 0.11 0.09 0.06
0.00 0.00 0.00 0.00 0.00 0.00 0.03 0.05 0.05 0.08 0.11 0.11 0.11 0.07 0.02 0.01 0.00 0.00 0.01 0.03 0.02 0.02 0.01 0.01 0.01 0.02 0.05 0.06 0.07 0.07 0.10 0.15 0.19 0.23 0.23 0.18 0.11 0.09 0.12 0.15 0.15 0.16 0.19 0.20 0.16 0.11 0.07 0.04 0.03
0.00 0.00 0.00 0.00 0.00 0.00 0.02 0.04 0.03 0.06 0.11 0.10 0.07 0.05 0.03 0.02 0.01 0.01 0.01 0.02 0.01 0.01 0.00 0.01 0.01 0.02 0.05 0.08 0.09 0.11 0.14 0.18 0.23 0.28 0.26 0.18 0.12 0.10 0.13 0.17 0.19 0.20 0.23 0.27 0.23 0.20 0.13 0.08 0.05
0.00 0.00 0.00 0.00 0.00 0.00 0.01 0.03 0.03 0.04 0.07 0.06 0.03 0.03 0.02 0.01 0.01 0.01 0.02 0.02 0.02 0.02 0.01 0.00 0.02 0.03 0.06 0.08 0.09 0.11 0.15 0.19 0.24 0.28 0.24 0.17 0.12 0.09 0.12 0.18 0.21 0.24 0.26 0.25 0.22 0.20 0.14 0.12 0.10
0.00 0.00 0.00 0.00 0.00 0.00 0.01 0.01 0.02 0.04 0.06 0.05 0.04 0.04 0.04 0.02 0.03 0.04 0.04 0.05 0.03 0.02 0.01 0.01 0.02 0.03 0.10 0.16 0.11 0.09 0.12 0.16 0.22 0.26 0.22 0.15 0.12 0.13 0.17 0.18 0.22 0.24 0.21 0.17 0.17 0.16 0.13 0.15 0.17
0.00 0.00 0.00 0.00 0.00 0.00 0.01 0.01 0.01 0.03 0.07 0.07 0.06 0.05 0.04 0.03 0.06 0.09 0.09 0.10 0.09 0.08 0.05 0.02 0.02 0.02 0.05 0.07 0.06 0.06 0.08 0.11 0.17 0.21 0.24 0.19 0.15 0.22 0.25 0.23 0.24 0.27 0.22 0.17 0.17 0.18 0.15 0.19 0.24
0.00 0.00 0.00 0.00 0.00 0.00 0.01 0.01 0.01 0.03 0.07 0.07 0.05 0.05 0.06 0.04 0.06 0.14 0.16 0.19 0.21 0.30 0.38 0.17 0.09 0.04 0.02 0.02 0.02 0.02 0.02 0.04 0.07 0.10 0.13 0.14 0.16 0.20 0.21 0.19 0.18 0.20 0.15 0.11 0.10 0.12 0.12 0.10 0.09
0.00 0.00 0.00 0.00 0.01 0.00 0.00 0.02 0.02 0.03 0.05 0.05 0.03 0.03 0.04 0.03 0.06 0.12 0.18 0.28 0.35 0.54 0.71 0.49 0.18 0.04 0.01 0.02 0.01 0.01 0.01 0.01 0.02 0.03 0.05 0.09 0.19 0.23 0.21 0.13 0.10 0.07 0.04 0.03 0.02 0.02 0.02 0.01 0.01
0.00 0.00 0.00 0.00 0.00 0.01 0.00 0.01 0.02 0.02 0.03 0.03 0.05 0.04 0.05 0.05 0.07 0.14 0.29 0.71 0.76 0.64 0.61 0.47 0.11 0.03 0.01 0.01 0.01 0.02 0.02 0.01 0.03 0.05 0.05 0.12 0.21 0.24 0.17 0.11 0.05 0.03 0.01 0.01 0.01 0.01 0.01 0.00 0.00
0.00 0.00 0.00 0.00 0.00 0.00 0.00 0.00 0.01 0.02 0.02 0.03 0.07 0.09 0.07 0.04 0.06 0.10 0.22 0.69 0.90 0.57 0.32 0.16 0.10 0.06 0.03 0.01 0.02 0.02 0.02 0.03 0.03 0.05 0.06 0.12 0.11 0.08 0.05 0.05 0.05 0.03 0.02 0.03 0.03 0.02 0.01 0.01 0.01
0.00 0.00 0.00 0.00 0.00 0.00 0.00 0.00 0.00 0.01 0.02 0.04 0.09 0.14 0.10 0.04 0.04 0.08 0.18 0.29 0.31 0.33 0.24 0.13 0.10 0.07 0.05 0.02 0.01 0.02 0.02 0.02 0.02 0.04 0.04 0.07 0.10 0.08 0.07 0.08 0.08 0.09 0.09 0.08 0.06 0.05 0.04 0.03 0.03
0.00 0.00 0.00 0.00 0.00 0.00 0.00 0.00 0.00 0.00 0.01 0.02 0.06 0.13 0.10 0.06 0.05 0.10 0.24 0.29 0.27 0.33 0.31 0.17 0.11 0.07 0.04 0.02 0.01 0.01 0.01 0.02 0.02 0.03 0.03 0.04 0.05 0.07 0.09 0.10 0.10 0.10 0.12 0.14 0.12 0.08 0.08 0.07 0.09
0.00 0.00 0.00 0.00 0.00 0.00 0.00 0.00 0.00 0.00 0.00 0.01 0.03 0.09 0.13 0.08 0.09 0.13 0.29 0.35 0.39 0.52 0.49 0.24 0.11 0.05 0.03 0.02 0.01 0.01 0.02 0.04 0.05 0.06 0.05 0.04 0.08 0.12 0.13 0.14 0.15 0.11 0.12 0.17 0.22 0.19 0.15 0.12 0.14
0.00 0.00 0.00 0.00 0.00 0.00 0.00 0.00 0.00 0.00 0.00 0.01 0.03 0.08 0.14 0.14 0.14 0.19 0.28 0.32 0.46 0.74 0.68 0.32 0.12 0.05 0.04 0.03 0.03 0.04 0.05 0.07 0.09 0.12 0.11 0.08 0.11 0.16 0.18 0.20 0.20 0.17 0.17 0.18 0.19 0.20 0.18 0.18 0.20
0.00 0.00 0.00 0.00 0.00 0.00 0.00 0.00 0.00 0.00 0.00 0.01 0.02 0.04 0.07 0.09 0.11 0.16 0.30 0.43 0.69 1.07 1.06 0.46 0.14 0.07 0.07 0.10 0.11 0.11 0.12 0.12 0.13 0.17 0.17 0.13 0.16 0.25 0.30 0.32 0.31 0.30 0.28 0.30 0.31 0.30 0.28 0.27 0.26
0.00 0.00 0.00 0.00 0.00 0.00 0.00 0.00 0.00 0.00 0.00 0.00 0.01 0.02 0.02 0.03 0.06 0.13 0.30 0.60 1.09 1.63 1.36 0.60 0.28 0.21 0.20 0.22 0.26 0.30 0.29 0.28 0.29 0.31 0.31 0.32 0.34 0.36 0.43 0.48 0.50 0.50 0.53 0.50 0.45 0.47 0.48 0.46 0.40
0.00 0.00 0.00 0.00 0.00 0.00 0.00 0.00 0.00 0.00 0.00 0.00 0.01 0.01 0.02 0.04 0.07 0.12 0.30 0.73 1.39 2.03 1.55 0.89 0.65 0.57 0.51 0.47 0.50 0.52 0.56 0.60 0.60 0.55 0.51 0.48 0.49 0.55 0.69 0.75 0.77 0.75 0.73 0.71 0.71 0.67 0.53 0.40 0.34
0.00 0.00 0.00 0.00 0.00 0.00 0.00 0.00 0.00 0.00 0.00 0.00 0.00 0.01 0.01 0.03 0.08 0.17 0.38 0.69 0.87 1.03 0.94 0.83 0.81 0.75 0.71 0.74 0.80 0.93 1.07 1.09 0.99 0.93 0.90 0.91 0.98 1.07 1.15 1.14 1.09 0.98 0.92 0.88 0.76 0.61 0.49 0.37 0.30
0.00 0.00 0.00 0.00 0.00 0.00 0.00 0.00 0.00 0.00 0.00 0.00 0.01 0.01 0.01 0.04 0.10 0.19 0.35 0.49 0.57 0.71 0.86 0.86 0.81 0.86 0.98 1.21 1.42 1.69 1.84 1.77 1.64 1.54 1.49 1.52 1.51 1.45 1.40 1.35 1.22 1.08 0.93 0.79 0.66 0.58 0.51 0.45 0.37
0.00 0.00 0.00 0.00 0.00 0.00 0.00 0.00 0.01 0.01 0.01 0.01 0.01 0.01 0.02 0.05 0.11 0.17 0.26 0.41 0.54 0.70 0.89 0.96 1.01 1.20 1.44 1.74 2.14 2.45 2.45 2.31 2.25 2.11 2.05 1.93 1.78 1.65 1.55 1.40 1.28 1.12 0.96 0.83 0.70 0.60 0.51 0.42 0.31
0.00 0.00 0.00 0.00 0.00 0.00 0.00 0.00 0.01 0.01 0.01 0.02 0.02 0.02 0.03 0.05 0.08 0.15 0.26 0.46 0.68 0.89 1.05 1.17 1.33 1.63 1.99 2.27 2.55 2.74 2.76 2.64 2.57 2.32 2.13 1.92 1.70 1.57 1.45 1.31 1.15 1.02 0.89 0.76 0.64 0.52 0.40 0.29 0.22
0.00 0.00 0.00 0.00 0.00 0.00 0.00 0.00 0.01 0.02 0.02 0.02 0.03 0.04 0.05 0.06 0.08 0.13 0.22 0.40 0.63 0.89 1.18 1.37 1.52 1.88 2.24 2.45 2.57 2.70 2.83 2.80 2.58 2.18 1.85 1.60 1.41 1.29 1.13 0.96 0.82 0.75 0.67 0.56 0.44 0.33 0.22 0.16 0.11
0.00 0.00 0.00 0.00 0.00 0.00 0.00 0.00 0.01 0.04 0.03 0.03 0.04 0.05 0.07 0.08 0.10 0.15 0.22 0.34 0.50 0.71 0.99 1.19 1.38 1.84 2.27 2.47 2.54 2.60 2.59 2.38 2.02 1.67 1.40 1.23 1.13 1.03 0.89 0.77 0.63 0.50 0.38 0.27 0.20 0.15 0.12 0.09 0.08
0.00 0.00 0.00 0.00 0.00 0.00 0.00 0.01 0.06 0.07 0.05 0.04 0.05 0.08 0.10 0.10 0.12 0.17 0.25 0.34 0.47 0.60 0.83 1.07 1.30 1.57 1.89 2.08 2.10 2.08 1.97 1.77 1.60 1.43 1.24 1.06 0.91 0.78 0.64 0.45 0.31 0.22 0.15 0.11 0.08 0.07 0.06 0.05 0.05
0.00 0.00 0.00 0.00 0.00 0.00 0.01 0.05 0.14 0.10 0.08 0.08 0.09 0.10 0.11 0.13 0.15 0.21 0.32 0.41 0.49 0.59 0.78 1.02 1.20 1.37 1.49 1.52 1.50 1.37 1.25 1.17 1.10 0.96 0.79 0.65 0.51 0.41 0.32 0.19 0.12 0.09 0.06 0.04 0.04 0.04 0.04 0.05 0.06
0.00 0.00 0.00 0.00 0.00 0.00 0.02 0.12 0.24 0.21 0.16 0.16 0.16 0.14 0.15 0.18 0.21 0.30 0.39 0.45 0.51 0.57 0.67 0.80 0.90 0.98 0.95 0.85 0.81 0.77 0.72 0.65 0.56 0.45 0.34 0.28 0.23 0.17 0.12 0.08 0.07 0.06 0.06 0.06 0.07 0.07 0.07 0.09 0.10
0.00 0.00 0.00 0.00 0.00 0.00 0.02 0.11 0.23 0.28 0.28 0.25 0.22 0.21 0.21 0.24 0.29 0.36 0.43 0.46 0.47 0.49 0.54 0.55 0.54 0.54 0.51 0.48 0.46 0.43 0.40 0.34 0.29 0.24 0.20 0.17 0.15 0.12 0.09 0.08 0.08 0.07 0.07 0.08 0.10 0.10 0.10 0.12 0.12
0.00 0.00 0.00 0.00 0.00 0.00 0.02 0.15 0.26 0.37 0.38 0.34 0.33 0.30 0.28 0.30 0.38 0.46 0.47 0.43 0.40 0.38 0.37 0.38 0.38 0.35 0.33 0.33 0.31 0.28 0.24 0.19 0.16 0.14 0.12 0.11 0.09 0.08 0.08 0.08 0.08 0.08 0.08 0.09 0.11 0.11 0.10 0.10 0.10
0.01 0.01 0.00 0.00 0.00 0.00 0.03 0.22 0.33 0.55 0.63 0.56 0.49 0.40 0.39 0.41 0.45 0.49 0.46 0.39 0.34 0.34 0.34 0.32 0.33 0.31 0.29 0.26 0.24 0.20 0.17 0.13 0.12 0.11 0.11 0.10 0.10 0.10 0.10 0.10 0.11 0.10 0.09 0.09 0.11 0.11 0.09 0.10 0.10